sat.trackr.live / text

‹ back to catalog

STARLINK-32553

NORAD 62071 · 2024-217Q

PAYLOAD ACTIVE UNKNOWN

§ Identity

Operator
Country
US
Launch date
2024-11-24
Launch site
AFWTR
Launch vehicle
Mass (kg)
RCS (m²)

Purposes: comms

External: N2YO · Heavens-Above · Gunter

§ Orbital elements

Epoch: 2026-05-24T20:45:45.910944Z

Period
93.85 min
Inclination
53.1597°
Eccentricity
0.0001669
Mean motion
15.34400643 rev/d
Perigee alt
461.6 km
Apogee alt
463.8 km
Semi-major
6,840.8 km
B*
5.2055e-4
RAAN
200.1064°
Arg perigee
86.0031°
Mean anomaly
274.1163°
Rev number
8,513

§ Raw data

STARLINK-325531 62071U 24217Q   26144.86511471  .00017252  00000+0  52055-3 0  99982 62071  53.1597 200.1064 0001669  86.0031 274.1163 15.34400643 85132

JSON: /api/v1/satellites/62071 · /tle

For live sub-satellite position, see the globe view (requires WebGL).

§ Visibility from observer

Set your observer location to see the next 7 days of passes ≥ 10°. The values pass through the URL so the page stays shareable.

No JS? Fill the form by hand. The geolocation button needs JavaScript.